Regional Weather Roundup
Issued by NWS

Home | Current Version | Previous Version | Graphics & Text | Print | Product List | Glossary On
Versions: 1 2 3 4 5 6 7 8 9 10 11 12 13 14 15 16 17 18 19 20 21 22 23 24 25 26 27 28 29 30 31 32 33 34 35 36 37 38 39 40 41 42 43 44 45 46 47 48 49 50
000
ASUS43 KMPX 280901
RWRMN
WEATHER ROUNDUP FOR MINNESOTA
NATIONAL WEATHER SERVICE TWIN CITIES/CHANHASSEN MN
400 AM CDT THU AUG 28 2014


NOTE: "FAIR" INDICATES FEW OR NO CLOUDS BELOW 12,000 FEET WITH NO
SIGNIFICANT WEATHER AND/OR OBSTRUCTIONS TO VISIBILITY. N/A MEANS
CURRENT SKY AND/OR WEATHER CONDITIONS ARE NOT AVAILABLE.

MNZ060>063-068>070-281000-
   Twin Cities Metro

CITY           SKY/WX    TMP DP  RH WIND       PRES   REMARKS
TWIN CITIES    PTCLDY    63  56  78 E8        30.10F
ST PAUL        CLEAR     62  55  77 CALM      30.11F
CRYSTAL        CLEAR     63  55  75 SE5       30.08F
BLAINE         PTCLDY    63  57  82 SE6       30.10F
LAKEVILLE      CLEAR     55  55 100 E3        30.10F
EDEN PRAIRIE   CLEAR     63  59  87 E8        30.08F
SOUTH ST PAUL  CLEAR     62  55  76 CALM      30.10F
LAKE ELMO      FAIR      61  54  77 SE3       30.12F
$$
MNZ001>005-007-008-013>017-022>024-027-028-281000-
   Northwest Minnesota

CITY           SKY/WX    TMP DP  RH WIND       PRES   REMARKS
BEMIDJI        CLOUDY    53  53  99 CALM      30.08F
HALLOCK        CLEAR     55  54  94 SE8       30.00F
ROSEAU         CLEAR     54  48  82 S6        30.05S
WARROAD        CLEAR     54  50  87 CALM      30.05F
THIEF RVR FALL CLOUDY    57  55  94 SE7       30.04S
CROOKSTON      PTCLDY    61  57  88 S8        30.03S
FOSSTON        PTCLDY    57  54  88 SE6       30.06S
DETROIT LAKES  PTCLDY    61  57  88 SE8       30.06F
MOORHEAD       CLOUDY    64  64 100 S7        30.03S
PARK RAPIDS    CLEAR     58  55  90 SE8       30.08F
MAHNOMEN       FAIR      58  56  92 SE5       30.04F
$$
MNZ006-009>011-018-025>026-281000-
   North Central Minnesota

CITY           SKY/WX    TMP DP  RH WIND       PRES   REMARKS
BAUDETTE       CLEAR     50  48  93 SE3       30.06F
FLAG ISLAND    CLEAR     64  57  77 S7        30.03F
INTL FALLS     CLEAR     47  46  97 SE3       30.09F
WASKISH        CLEAR     52  52 100 CALM      30.07F
BIG FORK       FOG       45  45 100 CALM      30.11S VSB 1/4
LONGVILLE      MOCLDY    50  48  93 CALM      30.09F
GRAND RAPIDS   MOCLDY    48  46  93 S3        30.11S
CRANE LAKE     CLEAR     41  39  93 CALM      30.13S
ORR            CLEAR     48  46  93 CALM      30.09S
COOK           CLEAR     43  43 100 CALM      30.12S
WALKER         PTSUNNY   58  56  95 CALM      30.09F
$$
MNZ012-019>021-037-281000-
   Northeast Minnesota

CITY           SKY/WX    TMP DP  RH WIND       PRES   REMARKS
DULUTH         PTCLDY    55  51  86 CALM      30.13S
ELY            CLEAR     45  43  93 CALM      30.13S
HIBBING        FOG       45  43  93 CALM      30.13R VSB 1/4
EVELETH        FOG       43  41  93 CALM      30.13S VSB 3/4
DULUTH HARBOR  CLEAR     57  54  88 CALM      30.13S
TWO HARBORS    CLEAR     48  45  87 CALM      30.12S
SILVER BAY     CLEAR     46  46 100 CALM      30.12S
GRAND MARAIS     N/A     54  51  90 CALM      30.13F
G MARAIS ARPRT MOCLDY    46  45  93 NE3       30.15F
$$
MNZ029>031-032-039>041-046>048-054>057-064-281000-
   West Central Minnesota

CITY           SKY/WX    TMP DP  RH WIND       PRES   REMARKS
FERGUS FALLS   CLOUDY    64  57  77 SE9       30.04F
WHEATON        CLEAR     57  55  94 SE5       30.04F
MORRIS         CLEAR     61  59  94 SE5       30.04F
ALEXANDRIA     CLOUDY    62  57  83 SE9       30.08F
ELBOW LAKE     CLOUDY    63  59  89 SE8       30.04F
WADENA         MOCLDY    59  55  88 SE6       30.07F
GLENWOOD       CLEAR     61  57  88 E6        30.07F
APPLETON       PTCLDY    63  57  82 SE5       30.04S
BENSON         PTCLDY    63  57  82 S6        30.06S
ORTONVILLE     CLOUDY    64  57  77 SE5       30.03F
MADISON        MOCLDY    66  61  82 SE5       30.04S
WILLMAR        MOCLDY    63  57  82 SE7       30.08S
$$
MNZ033>034-036-042>043-049>051-058-059-281000-
   Central Minnesota

CITY           SKY/WX    TMP DP  RH WIND       PRES   REMARKS
ST CLOUD       PTCLDY    62  55  77 SE6       30.09F
SAUK CENTRE    CLOUDY    60  57  88 E5        30.08F
PAYNESVILLE    PTCLDY    60  56  88 E6        30.08F
AITKIN         MOCLDY    54  48  82 CALM      30.09F
PINE RIVER     CLOUDY    55  55 100 CALM      30.12F
BRAINERD       CLOUDY    60  56  86 S3        30.10F
STAPLES        MOCLDY    57  55  94 SE3       30.09S
LONG PRAIRIE   CLOUDY    59  55  88 SE8       30.09F
LITTLE FALLS   MOCLDY    57  54  88 SE3       30.09F
LITCHFIELD     PTCLDY    63  61  94 SE5       30.08F
BUFFALO        PTCLDY    62  56  81 E7        30.09F
MAPLE LAKE     CLEAR     63  59  87 E3        30.10F
$$
MNZ037-044-045-052-053-281000-
   East Central Minnesota

CITY           SKY/WX    TMP DP  RH WIND       PRES   REMARKS
PRINCETON      CLOUDY    63  57  82 E3        30.10F
MORA           CLOUDY    57  54  88 CALM      30.12F
CAMBRIDGE      CLEAR     64  54  68 CALM      30.09F
RUSH CITY      CLOUDY    60  56  86 CALM      30.11F
MOOSE LAKE     FOG       46  45  93 CALM      30.11F VSB 1/2
HINCKLEY       CLOUDY    55  55 100 CALM      30.12F
CLOQUET        FOG       50  48  93 CALM      30.13S VSB 3/4
MCGREGOR       PTCLDY    48  46  93 CALM      30.12F
$$
MNZ071>073-080-081-089-090-097-098-281000-
   Southwest Minnesota

CITY           SKY/WX    TMP DP  RH WIND       PRES   REMARKS
MONTEVIDEO     MOCLDY    61  61 100 S7        30.06S
GRANITE FALLS  MOCLDY    63  59  88 E9        30.07S
CANBY          CLOUDY    64  61  90 SE5       30.05S
MARSHALL       MOCLDY    64  59  82 SE8       30.03F
REDWOOD FALLS  MOCLDY    63  59  87 SE9       30.06F
OLIVIA         PTCLDY    61  55  82 SE5       30.06S
PIPESTONE        N/A     66  63  88 SE7       30.04F
WINDOM         MOCLDY    63  61  94 E6        30.06F
WORTHINGTON    CLOUDY    64  63  94 E6        30.06F
JACKSON        CLOUDY    63  59  88 E8        30.07F
TRACY          MOCLDY    64  61  87 SE5       30.05F
SLAYTON        CLOUDY    64  62  93 CALM      30.06F
$$
MNZ065>067-074>077-082>085-091>093-281000-
   South Central Minnesota

CITY           SKY/WX    TMP DP  RH WIND       PRES   REMARKS
MANKATO        PTCLDY    63  55  77 SE8       30.08S
NEW ULM        MOCLDY    63  61  94 SE6       30.07S
ST JAMES       MOCLDY    61  59  94 E5        30.07F
FAIRMONT       CLOUDY    61  57  88 SE6       30.06F
GLENCOE        PTCLDY    61  57  87 CALM      30.08F
FARIBAULT      CLEAR     61  55  82 CALM      30.10S
OWATONNA       PTCLDY    61  55  82 SE3       30.10S
WASECA         PTCLDY    57  54  88 E5        30.11S
ALBERT LEA     PTCLDY    61  57  88 SE5       30.09S
$$
MNZ078>079-086>088-094>096-281000-
   Southeast Minnesota

CITY           SKY/WX    TMP DP  RH WIND       PRES   REMARKS
ROCHESTER      CLEAR     57  55  93 SE6       30.11F
RED WING       CLEAR     61  55  82 E5        30.10F
STANTON        CLEAR     56  55  93 NE3       30.09F
DODGE CENTER   PTCLDY    57  55  94 E5        30.10F
WINONA         CLOUDY    61  61 100 CALM      30.12S
AUSTIN         PTCLDY    57  55  94 E3        30.09S
PRESTON        CLEAR     56  56 100 CALM      30.12S FOG
$$
ABBREVIATIONS USED IN REMARKS
   TC - TEMPERATURES IN CELSIUS
  WCI - WIND CHILL INDEX
   HX - HEAT INDEX
  VSB - VISIBILITY
$$


USA.gov is the U.S. government's official web portal to all federal, state and local government web resources and services.